Hell Yeah Pointer 4
     __    Bye Litespeed   _____ 
     ██████   ██████ ███████████       █████████  █████   ████ █████   ████           
░░██████ ██████ ░░███░░░░░███     ███░░░░░███░░███   ███░ ░░███   ███░            
 ░███░█████░███  ░███    ░███    ░███    ░░░  ░███  ███    ░███  ███              
 ░███░░███ ░███  ░██████████     ░░█████████  ░███████     ░███████               
 ░███ ░░░  ░███  ░███░░░░░███     ░░░░░░░░███ ░███░░███    ░███░░███              
 ░███      ░███  ░███    ░███     ███    ░███ ░███ ░░███   ░███ ░░███             
 █████     █████ █████   █████   ░░█████████  █████ ░░████ █████ ░░████                        
Zona waktu server: America/Sao_Paulo
Waktu server saat ini: 2026-09-04 16:28:26
curdir: / / home / cienp / public_html / portal / vendors / DateJS / build / [ GO Home ]


Item Name
Size
Date
Permissions
View
Delete
Rename
. 4096 2026-04-17 22:31:26 0755
.. 4096 2026-04-17 22:21:28 0755
date-af-ZA.js 142205 2026-04-17 22:20:13 0644
date-ar-AE.js 142481 2026-04-17 22:20:31 0644
date-ar-BH.js 142451 2026-04-17 22:21:20 0644
date-ar-DZ.js 142427 2026-04-17 22:20:49 0644
date-ar-EG.js 142439 2026-04-17 22:20:57 0644
date-ar-IQ.js 142545 2026-04-17 22:20:07 0644
date-ar-JO.js 142549 2026-04-17 22:21:11 0644
date-ar-KW.js 142447 2026-04-17 22:21:11 0644
date-ar-LB.js 142549 2026-04-17 22:20:31 0644
date-ar-LY.js 142443 2026-04-17 22:21:00 0644
date-ar-MA.js 142426 2026-04-17 22:20:59 0644
date-ar-OM.js 142439 2026-04-17 22:20:23 0644
date-ar-QA.js 142439 2026-04-17 22:20:45 0644
date-ar-SA.js 142641 2026-04-17 22:20:42 0644
date-ar-SY.js 142545 2026-04-17 22:20:41 0644
date-ar-TN.js 142409 2026-04-17 22:20:16 0644
date-ar-YE.js 142443 2026-04-17 22:20:59 0644
date-az-Cyrl-AZ.js 142471 2026-04-17 22:20:12 0644
date-az-Latn-AZ.js 142207 2026-04-17 22:20:29 0644
date-be-BY.js 142478 2026-04-17 22:20:10 0644
date-bg-BG.js 142516 2026-04-17 22:21:06 0644
date-bs-Latn-BA.js 142173 2026-04-17 22:20:30 0644
date-ca-ES.js 142211 2026-04-17 22:21:14 0644
date-cs-CZ.js 142110 2026-04-17 22:21:08 0644
date-cy-GB.js 142198 2026-04-17 22:20:17 0644
date-da-DK.js 142098 2026-04-17 22:20:14 0644
date-de-AT.js 142237 2026-04-17 22:21:20 0644
date-de-CH.js 142218 2026-04-17 22:21:19 0644
date-de-DE.js 142214 2026-04-17 22:20:44 0644
date-de-LI.js 142228 2026-04-17 22:20:27 0644
date-de-LU.js 142218 2026-04-17 22:20:18 0644
date-dv-MV.js 142613 2026-04-17 22:20:07 0644
date-el-GR.js 142609 2026-04-17 22:20:04 0644
date-en-029.js 142203 2026-04-17 22:20:26 0644
date-en-AU.js 142193 2026-04-17 22:21:10 0644
date-en-BZ.js 142190 2026-04-17 22:21:04 0644
date-en-CA.js 142176 2026-04-17 22:20:37 0644
date-en-GB.js 142193 2026-04-17 22:20:50 0644
date-en-IE.js 142165 2026-04-17 22:20:54 0644
date-en-JM.js 142196 2026-04-17 22:20:15 0644
date-en-NZ.js 142203 2026-04-17 22:20:32 0644
date-en-PH.js 142235 2026-04-17 22:21:05 0644
date-en-TT.js 142227 2026-04-17 22:21:17 0644
date-en-US.js 135390 2026-04-17 22:20:15 0644
date-en-ZA.js 142196 2026-04-17 22:21:02 0644
date-en-ZW.js 142194 2026-04-17 22:21:21 0644
date-es-AR.js 142235 2026-04-17 22:20:12 0644
date-es-BO.js 142229 2026-04-17 22:20:18 0644
date-es-CL.js 142203 2026-04-17 22:21:08 0644
date-es-CO.js 142232 2026-04-17 22:20:21 0644
date-es-CR.js 142238 2026-04-17 22:20:05 0644
date-es-DO.js 142265 2026-04-17 22:20:05 0644
date-es-EC.js 142209 2026-04-17 22:20:51 0644
date-es-ES.js 142205 2026-04-17 22:20:09 0644
date-es-GT.js 142235 2026-04-17 22:21:26 0644
date-es-HN.js 142232 2026-04-17 22:21:06 0644
date-es-MX.js 142227 2026-04-17 22:21:01 0644
date-es-NI.js 142235 2026-04-17 22:20:10 0644
date-es-PA.js 142227 2026-04-17 22:20:29 0644
date-es-PE.js 142221 2026-04-17 22:20:35 0644
date-es-PR.js 142241 2026-04-17 22:20:27 0644
date-es-PY.js 142232 2026-04-17 22:20:34 0644
date-es-SV.js 142241 2026-04-17 22:20:26 0644
date-es-UY.js 142229 2026-04-17 22:20:47 0644
date-es-VE.js 142260 2026-04-17 22:20:44 0644
date-et-EE.js 142153 2026-04-17 22:20:28 0644
date-eu-ES.js 142313 2026-04-17 22:20:24 0644
date-fa-IR.js 142200 2026-04-17 22:21:19 0644
date-fi-FI.js 142198 2026-04-17 22:20:16 0644
date-fo-FO.js 142221 2026-04-17 22:21:07 0644
date-fr-BE.js 142230 2026-04-17 22:20:54 0644
date-fr-CA.js 142169 2026-04-17 22:20:49 0644
date-fr-CH.js 142244 2026-04-17 22:20:16 0644
date-fr-FR.js 142230 2026-04-17 22:21:10 0644
date-fr-LU.js 142242 2026-04-17 22:21:21 0644
date-fr-MC.js 142278 2026-04-17 22:21:03 0644
date-gl-ES.js 142191 2026-04-17 22:20:13 0644
date-gu-IN.js 142918 2026-04-17 22:21:14 0644
date-he-IL.js 142459 2026-04-17 22:20:22 0644
date-hi-IN.js 142846 2026-04-17 22:20:04 0644
date-hr-BA.js 142234 2026-04-17 22:21:02 0644
date-hr-HR.js 142225 2026-04-17 22:20:08 0644
date-hu-HU.js 142237 2026-04-17 22:20:52 0644
date-hy-AM.js 142517 2026-04-17 22:20:56 0644
date-id-ID.js 142126 2026-04-17 22:20:46 0644
date-is-IS.js 142337 2026-04-17 22:21:16 0644
date-it-CH.js 142204 2026-04-17 22:21:00 0644
date-it-IT.js 142186 2026-04-17 22:20:40 0644
date-ja-JP.js 142134 2026-04-17 22:20:21 0644
date-ka-GE.js 142920 2026-04-17 22:21:23 0644
date-kk-KZ.js 142437 2026-04-17 22:20:19 0644
date-kn-IN.js 142956 2026-04-17 22:21:16 0644
date-ko-KR.js 142161 2026-04-17 22:20:51 0644
date-kok-IN.js 142906 2026-04-17 22:20:30 0644
date-ky-KG.js 142438 2026-04-17 22:20:53 0644
date-lt-LT.js 142270 2026-04-17 22:20:58 0644
date-lv-LV.js 142213 2026-04-17 22:20:42 0644
date-mi-NZ.js 142280 2026-04-17 22:20:34 0644
date-mk-MK.js 142581 2026-04-17 22:21:24 0644
date-mn-MN.js 142621 2026-04-17 22:21:04 0644
date-mr-IN.js 142923 2026-04-17 22:21:25 0644
date-ms-BN.js 142116 2026-04-17 22:20:47 0644
date-ms-MY.js 142089 2026-04-17 22:21:24 0644
date-mt-MT.js 142180 2026-04-17 22:20:23 0644
date-nb-NO.js 142125 2026-04-17 22:21:09 0644
date-nl-BE.js 142118 2026-04-17 22:20:56 0644
date-nl-NL.js 142127 2026-04-17 22:21:09 0644
date-nn-NO.js 142125 2026-04-17 22:20:25 0644
date-ns-ZA.js 142208 2026-04-17 22:20:36 0644
date-pa-IN.js 142765 2026-04-17 22:21:07 0644
date-pl-PL.js 142144 2026-04-17 22:20:39 0644
date-pt-BR.js 142223 2026-04-17 22:21:18 0644
date-pt-PT.js 142234 2026-04-17 22:20:11 0644
date-quz-BO.js 142317 2026-04-17 22:21:23 0644
date-quz-EC.js 142297 2026-04-17 22:20:38 0644
date-quz-PE.js 142308 2026-04-17 22:20:48 0644
date-ro-RO.js 142170 2026-04-17 22:21:15 0644
date-ru-RU.js 142683 2026-04-17 22:20:36 0644
date-sa-IN.js 142861 2026-04-17 22:20:41 0644
date-se-FI.js 142385 2026-04-17 22:20:33 0644
date-se-NO.js 142387 2026-04-17 22:20:28 0644
date-se-SE.js 142372 2026-04-17 22:21:13 0644
date-sk-SK.js 142087 2026-04-17 22:20:40 0644
date-sl-SI.js 142159 2026-04-17 22:21:05 0644
date-sma-NO.js 142248 2026-04-17 22:20:43 0644
date-sma-SE.js 142247 2026-04-17 22:21:26 0644
date-smj-NO.js 142420 2026-04-17 22:21:17 0644
date-smj-SE.js 142408 2026-04-17 22:20:45 0644
date-smn-FI.js 142372 2026-04-17 22:21:12 0644
date-sms-FI.js 142417 2026-04-17 22:21:22 0644
date-sq-AL.js 142168 2026-04-17 22:21:25 0644
date-sr-Cyrl-BA.js 142513 2026-04-17 22:20:35 0644
date-sr-Cyrl-CS.js 142479 2026-04-17 22:20:09 0644
date-sr-Latn-BA.js 142179 2026-04-17 22:20:06 0644
date-sr-Latn-CS.js 142164 2026-04-17 22:20:33 0644
date-sv-FI.js 142121 2026-04-17 22:20:50 0644
date-sv-SE.js 142213 2026-04-17 22:20:08 0644
date-sw-KE.js 142184 2026-04-17 22:20:58 0644
date-syr-SY.js 142511 2026-04-17 22:20:20 0644
date-ta-IN.js 142789 2026-04-17 22:20:57 0644
date-te-IN.js 143004 2026-04-17 22:20:55 0644
date-th-TH.js 142837 2026-04-17 22:20:19 0644
date-tn-ZA.js 142203 2026-04-17 22:20:32 0644
date-tr-TR.js 142166 2026-04-17 22:21:01 0644
date-tt-RU.js 142442 2026-04-17 22:20:37 0644
date-uk-UA.js 142495 2026-04-17 22:20:38 0644
date-ur-PK.js 142324 2026-04-17 22:20:24 0644
date-uz-Cyrl-UZ.js 142413 2026-04-17 22:21:13 0644
date-uz-Latn-UZ.js 142243 2026-04-17 22:20:52 0644
date-vi-VN.js 142407 2026-04-17 22:20:53 0644
date-xh-ZA.js 142209 2026-04-17 22:20:43 0644
date-zh-CN.js 142264 2026-04-17 22:21:12 0644
date-zh-HK.js 142205 2026-04-17 22:20:20 0644
date-zh-MO.js 142249 2026-04-17 22:20:06 0644
date-zh-SG.js 142244 2026-04-17 22:20:39 0644
date-zh-TW.js 142263 2026-04-17 22:21:18 0644
date-zu-ZA.js 142184 2026-04-17 22:20:46 0644
date.js 136401 2026-04-17 22:21:03 0644
i18n 4096 2026-04-17 22:32:12 0755
production 12288 2026-04-17 22:41:33 0755